When you browse on this site, cookies collect data to enhance your experience and personalize the content and advertising you see.
Visit our Privacy Policy to learn more. By continuing to use the site, you agree to this use of cookies and data.
  • în România
  • Lista ţărilor
  • Pe 7 zile
  • Temperatura apei
  • Hartă satelitară
  • Meteo pe hartă
  • Widget-uri
  • user-avatar
    Intrare

    Meteo pe oră la Chitré

    Astăzi, 26 Mai, Duminică

    Timp Temperatura Precipitaţii Vânt Presiune Umiditate
    00:00 +28°C° 0 mm 1 m/s 755 mmHg 86%
    01:00 +28°C° 0 mm 1 m/s 755 mmHg 87%
    02:00 +28°C° 0 mm 1 m/s 755 mmHg 87%
    03:00 +28°C° 0 mm 1 m/s 755 mmHg 87%
    04:00 +27°C° 0 mm 1 m/s 754 mmHg 88%
    05:00 +28°C° 0 mm 1 m/s 755 mmHg 87%
    06:00 +28°C° 0 mm 1 m/s 755 mmHg 87%
    07:00 +28°C° 0 mm 1 m/s 755 mmHg 86%
    08:00 +29°C° 0 mm 1 m/s 755 mmHg 80%
    09:00 +30°C° 0 mm 1 m/s 756 mmHg 74%
    10:00 +31°C° 0 mm 2 m/s 756 mmHg 69%
    11:00 +32°C° 0.7 mm 2 m/s 756 mmHg 66%
    12:00 +34°C° 0.7 mm 2 m/s 755 mmHg 64%
    13:00 +34°C° 0.7 mm 2 m/s 755 mmHg 62%
    14:00 +34°C° 3.1 mm 2 m/s 755 mmHg 65%
    15:00 +33°C° 3.1 mm 3 m/s 754 mmHg 69%
    16:00 +33°C° 3.1 mm 3 m/s 754 mmHg 72%
    17:00 +31°C° 1.5 mm 2 m/s 754 mmHg 76%
    18:00 +30°C° 1.5 mm 1 m/s 754 mmHg 79%
    19:00 +29°C° 1.5 mm 1 m/s 754 mmHg 83%
    20:00 +29°C° 0.5 mm 1 m/s 755 mmHg 83%
    21:00 +29°C° 0.5 mm 1 m/s 755 mmHg 83%
    22:00 +29°C° 0.5 mm 1 m/s 756 mmHg 84%
    23:00 +29°C° 0.5 mm 1 m/s 756 mmHg 84%

    Mâine, 27 Mai, Luni

    Timp Temperatura Precipitaţii Vânt Presiune Umiditate
    00:00 +28°C° 0.5 mm 1 m/s 756 mmHg 85%
    01:00 +28°C° 0.5 mm 2 m/s 755 mmHg 86%
    02:00 +28°C° 0.7 mm 2 m/s 755 mmHg 86%
    03:00 +28°C° 0.7 mm 2 m/s 755 mmHg 86%
    04:00 +28°C° 0.7 mm 2 m/s 755 mmHg 87%
    05:00 +28°C° 0.8 mm 2 m/s 755 mmHg 86%
    06:00 +28°C° 0.8 mm 2 m/s 755 mmHg 85%
    07:00 +28°C° 0.8 mm 1 m/s 755 mmHg 84%
    08:00 +29°C° 0.1 mm 1 m/s 755 mmHg 79%
    09:00 +30°C° 0.1 mm 1 m/s 756 mmHg 74%
    10:00 +31°C° 0.1 mm 1 m/s 756 mmHg 69%
    11:00 +32°C° 0.8 mm 1 m/s 756 mmHg 67%
    12:00 +32°C° 0.8 mm 1 m/s 756 mmHg 66%
    13:00 +34°C° 0.8 mm 2 m/s 755 mmHg 65%
    14:00 +32°C° 3.5 mm 2 m/s 755 mmHg 67%
    15:00 +32°C° 3.5 mm 2 m/s 754 mmHg 70%
    16:00 +31°C° 3.5 mm 2 m/s 753 mmHg 73%
    17:00 +30°C° 2.6 mm 2 m/s 754 mmHg 77%
    18:00 +30°C° 2.6 mm 1 m/s 754 mmHg 81%
    19:00 +29°C° 2.6 mm 1 m/s 754 mmHg 84%
    20:00 +29°C° 0.7 mm 1 m/s 755 mmHg 85%
    21:00 +28°C° 0.7 mm 1 m/s 756 mmHg 85%
    22:00 +28°C° 0.7 mm 1 m/s 756 mmHg 86%
    23:00 +28°C° 0.3 mm 1 m/s 756 mmHg 87%

    Poimâine, 28 Mai, Marţi

    Timp Temperatura Precipitaţii Vânt Presiune Umiditate
    00:00 +28°C° 0.3 mm 2 m/s 756 mmHg 88%
    01:00 +28°C° 0.3 mm 2 m/s 755 mmHg 89%
    02:00 +27°C° 0.2 mm 2 m/s 755 mmHg 89%
    03:00 +27°C° 0.2 mm 2 m/s 754 mmHg 90%
    04:00 +27°C° 0.2 mm 2 m/s 754 mmHg 90%
    05:00 +27°C° 0 mm 2 m/s 754 mmHg 89%
    06:00 +27°C° 0 mm 1 m/s 754 mmHg 89%
    07:00 +27°C° 0 mm 1 m/s 754 mmHg 88%
    08:00 +28°C° 1 mm 1 m/s 755 mmHg 84%
    09:00 +30°C° 1 mm 1 m/s 755 mmHg 79%
    10:00 +31°C° 1 mm 1 m/s 756 mmHg 75%
    11:00 +31°C° 3 mm 2 m/s 755 mmHg 76%
    12:00 +30°C° 3 mm 2 m/s 755 mmHg 77%
    13:00 +30°C° 3 mm 2 m/s 755 mmHg 78%
    14:00 +29°C° 6.1 mm 3 m/s 754 mmHg 82%
    15:00 +28°C° 6.1 mm 5 m/s 754 mmHg 86%
    16:00 +27°C° 6.1 mm 6 m/s 754 mmHg 90%
    17:00 +27°C° 2.9 mm 5 m/s 754 mmHg 90%
    18:00 +27°C° 2.9 mm 5 m/s 754 mmHg 90%
    19:00 +27°C° 2.9 mm 4 m/s 754 mmHg 90%
    20:00 +27°C° 0.1 mm 4 m/s 755 mmHg 90%
    21:00 +27°C° 0.1 mm 4 m/s 755 mmHg 90%
    22:00 +27°C° 0.1 mm 3 m/s 756 mmHg 89%
    23:00 +27°C° 0 mm 4 m/s 755 mmHg 89%

    29 Mai, Miercuri

    Timp Temperatura Precipitaţii Vânt Presiune Umiditate
    00:00 +27°C° 0 mm 4 m/s 755 mmHg 89%
    01:00 +27°C° 0 mm 4 m/s 755 mmHg 89%
    02:00 +27°C° 0 mm 3 m/s 755 mmHg 89%
    03:00 +27°C° 0 mm 3 m/s 754 mmHg 90%
    04:00 +26°C° 0 mm 2 m/s 754 mmHg 90%
    05:00 +27°C° 0 mm 2 m/s 754 mmHg 90%
    06:00 +27°C° 0 mm 2 m/s 755 mmHg 89%
    07:00 +27°C° 0 mm 2 m/s 755 mmHg 89%
    08:00 +28°C° 0.2 mm 2 m/s 755 mmHg 84%
    09:00 +29°C° 0.2 mm 2 m/s 756 mmHg 80%
    10:00 +30°C° 0.2 mm 2 m/s 756 mmHg 75%
    11:00 +31°C° 1.5 mm 3 m/s 756 mmHg 73%
    12:00 +31°C° 1.5 mm 3 m/s 756 mmHg 72%
    13:00 +33°C° 1.5 mm 3 m/s 755 mmHg 70%
    14:00 +31°C° 2.1 mm 3 m/s 755 mmHg 74%
    15:00 +30°C° 2.1 mm 3 m/s 754 mmHg 77%
    16:00 +29°C° 2.1 mm 3 m/s 754 mmHg 81%
    17:00 +29°C° 1.2 mm 3 m/s 754 mmHg 83%
    18:00 +28°C° 1.2 mm 3 m/s 755 mmHg 85%
    19:00 +28°C° 1.2 mm 3 m/s 755 mmHg 87%
    20:00 +27°C° 0.5 mm 3 m/s 756 mmHg 88%
    21:00 +27°C° 0.5 mm 3 m/s 756 mmHg 89%
    22:00 +27°C° 0.5 mm 3 m/s 756 mmHg 90%
    23:00 +27°C° 0.6 mm 2 m/s 756 mmHg 90%

    30 Mai, Joi

    Timp Temperatura Precipitaţii Vânt Presiune Umiditate
    00:00 +27°C° 0.6 mm 2 m/s 756 mmHg 91%
    01:00 +27°C° 0.6 mm 2 m/s 755 mmHg 91%
    02:00 +27°C° 1.3 mm 2 m/s 755 mmHg 91%
    03:00 +27°C° 1.3 mm 2 m/s 754 mmHg 91%
    04:00 +27°C° 1.3 mm 2 m/s 754 mmHg 91%
    05:00 +26°C° 1.9 mm 1 m/s 755 mmHg 91%
    06:00 +26°C° 1.9 mm 1 m/s 755 mmHg 91%
    07:00 +26°C° 1.9 mm 1 m/s 755 mmHg 91%
    08:00 +27°C° 0.7 mm 2 m/s 756 mmHg 90%
    09:00 +27°C° 0.7 mm 3 m/s 756 mmHg 89%
    10:00 +27°C° 0.7 mm 3 m/s 757 mmHg 88%
    11:00 +27°C° 0.5 mm 3 m/s 756 mmHg 86%
    12:00 +28°C° 0.5 mm 3 m/s 756 mmHg 85%
    13:00 +28°C° 0.5 mm 4 m/s 755 mmHg 83%
    14:00 +28°C° 1.3 mm 3 m/s 755 mmHg 85%
    15:00 +28°C° 1.3 mm 3 m/s 755 mmHg 86%
    16:00 +27°C° 1.3 mm 3 m/s 754 mmHg 88%
    17:00 +27°C° 0.6 mm 3 m/s 755 mmHg 88%
    18:00 +27°C° 0.6 mm 3 m/s 755 mmHg 88%
    19:00 +27°C° 0.6 mm 4 m/s 755 mmHg 88%
    20:00 +27°C° 0.3 mm 3 m/s 756 mmHg 88%
    21:00 +27°C° 0.3 mm 3 m/s 756 mmHg 89%
    22:00 +27°C° 0.3 mm 2 m/s 757 mmHg 89%
    23:00 +26°C° 0 mm 3 m/s 756 mmHg 90%

    31 Mai, Vineri

    Timp Temperatura Precipitaţii Vânt Presiune Umiditate
    00:00 +26°C° 0 mm 3 m/s 756 mmHg 90%
    01:00 +26°C° 0 mm 3 m/s 755 mmHg 90%
    02:00 +26°C° 0 mm 4 m/s 755 mmHg 90%
    03:00 +26°C° 0 mm 4 m/s 755 mmHg 90%
    04:00 +26°C° 0 mm 4 m/s 754 mmHg 90%
    05:00 +26°C° 0.1 mm 4 m/s 755 mmHg 90%
    06:00 +26°C° 0.1 mm 4 m/s 755 mmHg 89%
    07:00 +26°C° 0.1 mm 4 m/s 755 mmHg 89%
    08:00 +26°C° 0.3 mm 3 m/s 756 mmHg 88%
    09:00 +27°C° 0.3 mm 3 m/s 756 mmHg 87%
    10:00 +27°C° 0.3 mm 3 m/s 756 mmHg 86%
    11:00 +28°C° 0 mm 2 m/s 756 mmHg 82%
    12:00 +29°C° 0 mm 2 m/s 755 mmHg 79%
    13:00 +29°C° 0 mm 2 m/s 755 mmHg 75%
    14:00 +30°C° 0 mm 2 m/s 754 mmHg 73%
    15:00 +30°C° 0 mm 1 m/s 754 mmHg 70%
    16:00 +31°C° 0 mm 1 m/s 753 mmHg 68%
    17:00 +30°C° 0.1 mm 2 m/s 754 mmHg 73%
    18:00 +29°C° 0.1 mm 2 m/s 754 mmHg 77%
    19:00 +28°C° 0.1 mm 2 m/s 755 mmHg 82%
    20:00 +28°C° 0.7 mm 2 m/s 755 mmHg 85%
    21:00 +27°C° 0.7 mm 1 m/s 755 mmHg 87%
    22:00 +27°C° 0.7 mm 1 m/s 756 mmHg 89%
    23:00 +27°C° 0.2 mm 1 m/s 756 mmHg 90%
    Arată mai mult